User: anonymous   Login
Location: Unspecified
(0.0000°N, 0.0000°E)
Time: 12:36:24
(UTC+00:00)
Language:

DODGE - Orbit

View from above orbital plane
View from above orbital plane
View from above satellite
View from above satellite

Ground track
Ground track

The orbit data is extracted from the following two-line orbital elements,

1  2867U 67066F   18020.66999847 -.00000061 +00000-0 +00000-0 0  9995
2  2867 004.8064 291.5151 0053498 304.9585 322.0496 01.09167466099862
Epoch (UTC): 20 January 2018 16:04:47
Eccentricity: 0.0053498
inclination: 4.8064°
perigee height: 33250 km
apogee height: 33676 km
right ascension of ascending node: 291.5151°
argument of perigee: 304.9585°
revolutions per day: 1.09167466
mean anomaly at epoch: 322.0496°
orbit number at epoch: 9986

The dashed part of the orbit path shows where the satellite is in the earth's shadow,  

DLR